Weather History for KGCN - March, 2014

Change the Weather History Date:

Friday, March 7, 2014

  Actual Average Record
Temperature  
Mean Temperature 40 °F -  
Max Temperature 54 °F 48 °F 65 °F (1986)
Min Temperature 23 °F 18 °F 12 °F (1998)
Degree Days  
Heating Degree Days 26    
Moisture  
Dew Point 21 °F    
Average Humidity 52    
Maximum Humidity 85    
Minimum Humidity 22    
Precipitation  
Precipitation 0.00 in - - ()
Sea Level Pressure  
Sea Level Pressure 29.94 in    
Wind  
Wind Speed 5 mph (WNW)    
Max Wind Speed 14 mph    
Max Gust Speed 22 mph    
Visibility 10 miles    
Events      
Averages and records for this station are not official NWS values.
T = Trace of Precipitation, MM = Missing Value Source: NWS Daily Summary

Daily Weather History Graph

Daily Weather History Graph

Search for Another Location

Airport or City:

Trip Planner

Search our weather history database for the weather conditions in past years. The results will help you decide how hot, cold, wet, or windy it might be!

Date:

Astronomy

Mar. 07, 2014 Rise Set
Actual Time 6:50 AM MST 6:29 PM MST
Civil Twilight 6:24 AM MST 6:54 PM MST
Nautical Twilight 5:55 AM MST 7:24 PM MST
Astronomical Twilight 5:25 AM MST 7:54 PM MST
Moon 10:57 AM MST (3/7) 12:26 AM MST (3/7)
Length of Visible Light 12h 29m
Length of Day
11h 38m
Waxing Crescent, 42% of the Moon is Illuminated
Mar 7
Waxing Crescent
Mar 8
First Quarter
Mar 16
Full
Mar 23
Last Quarter
Mar 30
New

Hourly Weather History & Observations

Time (MST) Temp. Windchill Dew Point Humidity Pressure Visibility Wind Dir Wind Speed Gust Speed Precip Events Conditions
12:54 AM 37.0 °F 31.6 °F 21.0 °F 52% 30.01 in 10.0 mi SW 6.9 mph - N/A   Clear
1:54 AM 35.1 °F 31.0 °F 21.9 °F 59% 29.86 in 10.0 mi SW 4.6 mph - N/A   Clear
2:54 AM 33.1 °F 27.7 °F 21.9 °F 64% 29.86 in 10.0 mi SSW 5.8 mph - N/A   Clear
3:54 AM 34.0 °F 29.8 °F 23.0 °F 64% 29.84 in 10.0 mi SSW 4.6 mph - N/A   Clear
4:54 AM 39.9 °F 34.5 °F 23.0 °F 51% 29.85 in 10.0 mi WNW 8.1 mph - N/A   Overcast
5:54 AM 30.0 °F - 21.9 °F 72% 29.89 in 10.0 mi Calm Calm - N/A   Clear
6:54 AM 28.9 °F - 24.1 °F 82% 29.93 in 10.0 mi Calm Calm - N/A   Mostly Cloudy
7:54 AM 34.0 °F - 28.0 °F 79% 29.93 in 10.0 mi Calm Calm - N/A   Partly Cloudy
8:54 AM 45.0 °F 41.8 °F 30.9 °F 58% 29.91 in 10.0 mi WNW 5.8 mph - N/A   Clear
9:54 AM 48.0 °F - 24.1 °F 39% 29.96 in 10.0 mi North - - N/A   Clear
10:54 AM 51.1 °F - 19.0 °F 28% 29.95 in 10.0 mi Variable 6.9 mph - N/A   Clear
11:54 AM 53.1 °F - 16.0 °F 23% 29.93 in 10.0 mi North 8.1 mph - N/A   Clear
12:54 PM 53.1 °F - 19.9 °F 27% 29.89 in 10.0 mi WNW 9.2 mph - N/A   Clear
1:54 PM 54.0 °F - 15.1 °F 22% 29.87 in 10.0 mi Variable 3.5 mph - N/A   Clear
2:54 PM 53.1 °F - 21.9 °F 30% 29.88 in 10.0 mi NW 10.4 mph 21.9 mph N/A   Clear
3:54 PM 52.0 °F - 18.0 °F 26% 29.90 in 10.0 mi WNW 13.8 mph 21.9 mph N/A   Clear
4:54 PM 51.1 °F - 19.0 °F 28% 29.88 in 10.0 mi NNW 8.1 mph 18.4 mph N/A   Clear
5:54 PM 48.0 °F - 19.9 °F 33% 29.96 in 10.0 mi Variable 5.8 mph - N/A   Clear
6:54 PM 44.1 °F 42.5 °F 21.0 °F 40% 29.98 in 10.0 mi Variable 3.5 mph - N/A   Clear
7:54 PM 34.0 °F - 21.0 °F 59% 30.03 in 10.0 mi Calm Calm - N/A   Clear
8:54 PM 28.9 °F - 19.9 °F 69% 30.02 in 10.0 mi Calm Calm - N/A   Clear
9:54 PM 25.0 °F 20.7 °F 19.0 °F 78% 30.04 in 10.0 mi NNE 3.5 mph - N/A   Clear
10:54 PM 25.0 °F - 19.0 °F 78% 30.05 in 10.0 mi Calm Calm - N/A   Clear
11:54 PM 23.0 °F 17.0 °F 19.0 °F 85% 30.06 in 10.0 mi NE 4.6 mph - N/A   Clear